• In Czech Republic
  • List of Countries
  • For 7 days
  • Water Temperature
  • Satellite Maps
  • Weather Map
  • Weather Widgets
  • user-avatar
    Login

    Hourly Weather Newcastle

    Today, 20 February, Tuesday

    Time Temperature Precipitation Wind Pressure Humidity
    00:00 0°C° 0 mm 3 mps 763 mmHg 90%
    01:00 +1°C° 0 mm 2 mps 763 mmHg 91%
    02:00 +1°C° 0 mm 2 mps 763 mmHg 92%
    03:00 -1°C° 0 mm 2 mps 763 mmHg 93%
    04:00 +1°C° 0 mm 1 mps 763 mmHg 93%
    05:00 0°C° 0 mm 1 mps 763 mmHg 94%
    06:00 0°C° 0.2 mm 1 mps 763 mmHg 94%
    07:00 +1°C° 0.2 mm 1 mps 763 mmHg 94%
    08:00 +1°C° 0.2 mm 1 mps 764 mmHg 94%
    09:00 +2°C° 0.1 mm 1 mps 764 mmHg 94%
    10:00 +1°C° 0.1 mm 2 mps 764 mmHg 94%
    11:00 +1°C° 0.1 mm 3 mps 764 mmHg 94%
    12:00 0°C° 0.1 mm 3 mps 764 mmHg 93%
    13:00 -1°C° 0.1 mm 3 mps 764 mmHg 92%
    14:00 -2°C° 0.1 mm 4 mps 764 mmHg 91%
    15:00 -4°C° 0.2 mm 4 mps 765 mmHg 92%
    16:00 -5°C° 0.2 mm 4 mps 765 mmHg 92%
    17:00 -7°C° 0.2 mm 4 mps 765 mmHg 93%
    18:00 -8°C° 0.4 mm 4 mps 765 mmHg 93%
    19:00 -8°C° 0.4 mm 4 mps 765 mmHg 93%
    20:00 -9°C° 0.4 mm 4 mps 766 mmHg 94%
    21:00 -8°C° 0.3 mm 3 mps 766 mmHg 94%
    22:00 -8°C° 0.3 mm 3 mps 766 mmHg 93%
    23:00 -8°C° 0.3 mm 3 mps 766 mmHg 93%

    Tomorrow, 21 February, Wednesday

    Time Temperature Precipitation Wind Pressure Humidity
    00:00 -8°C° 0.2 mm 3 mps 766 mmHg 94%
    01:00 -8°C° 0.2 mm 3 mps 765 mmHg 94%
    02:00 -8°C° 0.2 mm 3 mps 765 mmHg 94%
    03:00 -8°C° 0.1 mm 3 mps 765 mmHg 95%
    04:00 -6°C° 0.1 mm 2 mps 764 mmHg 95%
    05:00 -6°C° 0.1 mm 2 mps 764 mmHg 95%
    06:00 -6°C° 0.1 mm 2 mps 763 mmHg 95%
    07:00 -5°C° 0.1 mm 2 mps 762 mmHg 96%
    08:00 -5°C° 0.1 mm 2 mps 761 mmHg 96%
    09:00 -4°C° 0.2 mm 2 mps 760 mmHg 96%
    10:00 -4°C° 0.2 mm 3 mps 759 mmHg 96%
    11:00 -1°C° 0.2 mm 3 mps 757 mmHg 96%
    12:00 +1°C° 0.1 mm 3 mps 756 mmHg 97%
    13:00 +1°C° 0.1 mm 4 mps 755 mmHg 98%
    14:00 +4°C° 0.1 mm 4 mps 754 mmHg 99%
    15:00 +5°C° 0.1 mm 4 mps 753 mmHg 99%
    16:00 +6°C° 0.1 mm 4 mps 752 mmHg 99%
    17:00 +7°C° 0.1 mm 5 mps 751 mmHg 99%
    18:00 +7°C° 0.3 mm 5 mps 751 mmHg 98%
    19:00 +7°C° 0.3 mm 5 mps 752 mmHg 98%
    20:00 +8°C° 0.3 mm 5 mps 752 mmHg 97%
    21:00 +6°C° 0 mm 5 mps 753 mmHg 91%
    22:00 +3°C° 0 mm 5 mps 754 mmHg 85%
    23:00 +2°C° 0 mm 5 mps 756 mmHg 79%

    Day after tomorrow, 22 February, Thursday

    Time Temperature Precipitation Wind Pressure Humidity
    00:00 0°C° 0 mm 5 mps 757 mmHg 77%
    01:00 -4°C° 0 mm 5 mps 759 mmHg 74%
    02:00 -6°C° 0 mm 5 mps 760 mmHg 72%
    03:00 -7°C° 0 mm 5 mps 762 mmHg 71%
    04:00 -8°C° 0 mm 5 mps 763 mmHg 70%
    05:00 -10°C° 0 mm 5 mps 764 mmHg 69%
    06:00 -11°C° 0 mm 5 mps 765 mmHg 68%
    07:00 -12°C° 0 mm 5 mps 767 mmHg 67%
    08:00 -13°C° 0 mm 5 mps 768 mmHg 66%
    09:00 -12°C° 0 mm 5 mps 768 mmHg 65%
    10:00 -12°C° 0 mm 5 mps 769 mmHg 64%
    11:00 -11°C° 0 mm 5 mps 770 mmHg 63%
    12:00 -11°C° 0 mm 5 mps 769 mmHg 62%
    13:00 -10°C° 0 mm 5 mps 769 mmHg 62%
    14:00 -8°C° 0 mm 5 mps 769 mmHg 61%
    15:00 -8°C° 0 mm 5 mps 769 mmHg 63%
    16:00 -8°C° 0 mm 4 mps 769 mmHg 65%
    17:00 -9°C° 0 mm 4 mps 770 mmHg 66%
    18:00 -10°C° 0 mm 4 mps 770 mmHg 69%
    19:00 -10°C° 0 mm 4 mps 771 mmHg 71%
    20:00 -10°C° 0 mm 3 mps 772 mmHg 74%
    21:00 -12°C° 0 mm 3 mps 772 mmHg 74%
    22:00 -12°C° 0 mm 3 mps 773 mmHg 74%
    23:00 -13°C° 0 mm 3 mps 773 mmHg 75%

    23 February, Friday

    Time Temperature Precipitation Wind Pressure Humidity
    00:00 -13°C° 0 mm 3 mps 773 mmHg 75%
    01:00 -14°C° 0 mm 3 mps 773 mmHg 76%
    02:00 -14°C° 0 mm 3 mps 774 mmHg 76%
    03:00 -13°C° 0 mm 2 mps 774 mmHg 77%
    04:00 -14°C° 0 mm 2 mps 774 mmHg 78%
    05:00 -14°C° 0 mm 2 mps 774 mmHg 78%
    06:00 -14°C° 0 mm 2 mps 774 mmHg 78%
    07:00 -14°C° 0 mm 2 mps 774 mmHg 78%
    08:00 -14°C° 0 mm 2 mps 774 mmHg 78%
    09:00 -12°C° 0 mm 2 mps 774 mmHg 71%
    10:00 -9°C° 0 mm 2 mps 774 mmHg 65%
    11:00 -7°C° 0 mm 2 mps 773 mmHg 59%
    12:00 -6°C° 0 mm 2 mps 773 mmHg 57%
    13:00 -5°C° 0 mm 2 mps 772 mmHg 56%
    14:00 -4°C° 0 mm 2 mps 771 mmHg 55%
    15:00 -4°C° 0 mm 2 mps 770 mmHg 58%
    16:00 -4°C° 0 mm 2 mps 769 mmHg 61%
    17:00 -4°C° 0 mm 2 mps 769 mmHg 64%
    18:00 -5°C° 0 mm 2 mps 768 mmHg 67%
    19:00 -5°C° 0 mm 2 mps 767 mmHg 71%
    20:00 -6°C° 0 mm 2 mps 766 mmHg 75%
    21:00 -6°C° 0.1 mm 2 mps 766 mmHg 76%
    22:00 -7°C° 0.1 mm 3 mps 765 mmHg 78%
    23:00 -6°C° 0.1 mm 3 mps 764 mmHg 79%

    24 February, Saturday

    Time Temperature Precipitation Wind Pressure Humidity
    00:00 -6°C° 0.5 mm 3 mps 763 mmHg 83%
    01:00 -6°C° 0.5 mm 3 mps 761 mmHg 88%
    02:00 -6°C° 0.5 mm 3 mps 760 mmHg 92%
    03:00 -5°C° 0.3 mm 3 mps 759 mmHg 92%
    04:00 -5°C° 0.3 mm 3 mps 758 mmHg 92%
    05:00 -5°C° 0.3 mm 3 mps 757 mmHg 93%
    06:00 -3°C° 0.2 mm 2 mps 756 mmHg 93%
    07:00 -3°C° 0.2 mm 2 mps 756 mmHg 93%
    08:00 -2°C° 0.2 mm 2 mps 755 mmHg 93%
    09:00 -1°C° 0.1 mm 2 mps 755 mmHg 89%
    10:00 0°C° 0.1 mm 3 mps 754 mmHg 86%
    11:00 +1°C° 0.1 mm 3 mps 754 mmHg 83%
    12:00 +1°C° 0 mm 3 mps 754 mmHg 80%
    13:00 +1°C° 0 mm 3 mps 754 mmHg 77%
    14:00 +1°C° 0 mm 4 mps 753 mmHg 75%
    15:00 +1°C° 0 mm 3 mps 754 mmHg 74%
    16:00 0°C° 0 mm 3 mps 754 mmHg 73%
    17:00 0°C° 0 mm 3 mps 755 mmHg 73%
    18:00 -1°C° 0 mm 3 mps 756 mmHg 76%
    19:00 -4°C° 0 mm 3 mps 757 mmHg 79%
    20:00 -4°C° 0 mm 2 mps 758 mmHg 82%
    21:00 -5°C° 0 mm 2 mps 759 mmHg 82%
    22:00 -5°C° 0 mm 2 mps 760 mmHg 82%
    23:00 -7°C° 0 mm 3 mps 761 mmHg 82%

    25 February, Sunday

    Time Temperature Precipitation Wind Pressure Humidity
    00:00 -7°C° 0 mm 3 mps 761 mmHg 82%
    01:00 -8°C° 0 mm 3 mps 762 mmHg 81%
    02:00 -8°C° 0 mm 3 mps 763 mmHg 81%
    03:00 -8°C° 0 mm 2 mps 763 mmHg 81%
    04:00 -9°C° 0 mm 2 mps 764 mmHg 82%
    05:00 -9°C° 0 mm 2 mps 764 mmHg 82%
    06:00 -10°C° 0 mm 2 mps 765 mmHg 82%
    07:00 -10°C° 0 mm 2 mps 765 mmHg 81%
    08:00 -10°C° 0 mm 2 mps 766 mmHg 80%
    09:00 -9°C° 0 mm 2 mps 766 mmHg 75%
    10:00 -8°C° 0 mm 2 mps 766 mmHg 71%
    11:00 -8°C° 0 mm 2 mps 767 mmHg 66%
    12:00 -7°C° 0 mm 2 mps 766 mmHg 66%
    13:00 -8°C° 0 mm 3 mps 765 mmHg 65%
    14:00 -7°C° 0 mm 3 mps 765 mmHg 64%
    15:00 -8°C° 0 mm 3 mps 764 mmHg 68%
    16:00 -9°C° 0 mm 4 mps 764 mmHg 71%
    17:00 -10°C° 0 mm 4 mps 763 mmHg 74%
    18:00 -10°C° 0 mm 4 mps 763 mmHg 76%
    19:00 -11°C° 0 mm 4 mps 762 mmHg 78%
    20:00 -11°C° 0 mm 4 mps 762 mmHg 80%
    21:00 -11°C° 0 mm 4 mps 761 mmHg 80%
    22:00 -11°C° 0 mm 4 mps 760 mmHg 80%
    23:00 -11°C° 0 mm 4 mps 759 mmHg 80%
    Show more